contact:dominique.lefevre@mio.osupytheas.fr, maurice.libes@osupytheas.fr, didier.mallarino@osupytheas.fr
Project:EMSO http://www.emso-fr.org/EMSO-France
Depth: 2436.0 m
Title:EMSO Ligure Ouest : Data MII capteur MICROCAT
DateTime_Computer,Latitude,Longitude,Temperature,Conductivity,Pressure,DateTime_Instrument
DateTime_Computer,Latitude,Longitude,degC,S m-1,dbar,DateTime_Instrument
2021-01-28T00:00:28Z,42.805,6.029,13.2991,4.60014,2470.11,2021-1-28T02:01:30Z
2021-01-28T00:03:31Z,42.805,6.029,13.2992,4.60015,2470.087,2021-1-28T02:04:33Z
2021-01-28T00:06:34Z,42.805,6.029,13.2990,4.60003,2470.11,2021-1-28T02:07:36Z
2021-01-28T00:09:37Z,42.805,6.029,13.2985,4.60012,2470.11,2021-1-28T02:10:40Z
2021-01-28T00:12:40Z,42.805,6.029,13.2986,4.60005,2470.087,2021-1-28T02:13:43Z
2021-01-28T00:15:43Z,42.805,6.029,13.2989,4.60011,2470.1,2021-1-28T02:16:46Z
2021-01-28T00:18:47Z,42.805,6.029,13.2993,4.60004,2470.1,2021-1-28T02:19:49Z
2021-01-28T00:21:50Z,42.805,6.029,13.2990,4.59998,2470.124,2021-1-28T02:22:52Z
2021-01-28T00:24:53Z,42.805,6.029,13.2986,4.59999,2470.063,2021-1-28T02:25:55Z
2021-01-28T00:27:56Z,42.805,6.029,13.2985,4.59997,2470.1,2021-1-28T02:28:58Z
2021-01-28T00:30:59Z,42.805,6.029,13.2991,4.60007,2470.1,2021-1-28T02:32:02Z
2021-01-28T00:34:02Z,42.805,6.029,13.2989,4.60003,2470.124,2021-1-28T02:35:05Z
2021-01-28T00:37:05Z,42.805,6.029,13.2999,4.60007,2470.087,2021-1-28T02:38:08Z
2021-01-28T00:40:08Z,42.805,6.029,13.2996,4.60019,2470.063,2021-1-28T02:41:11Z
2021-01-28T00:43:12Z,42.805,6.029,13.2993,4.60010,2470.087,2021-1-28T02:44:14Z
2021-01-28T00:46:15Z,42.805,6.029,13.2988,4.60004,2470.087,2021-1-28T02:47:17Z
2021-01-28T00:49:18Z,42.805,6.029,13.2984,4.60014,2470.11,2021-1-28T02:50:20Z
2021-01-28T00:52:21Z,42.805,6.029,13.2986,4.60003,2470.077,2021-1-28T02:53:23Z
2021-01-28T00:55:24Z,42.805,6.029,13.2986,4.60001,2470.04,2021-1-28T02:56:26Z
2021-01-28T00:58:27Z,42.805,6.029,13.2993,4.60006,2470.087,2021-1-28T02:59:30Z
2021-01-28T01:01:30Z,42.805,6.029,13.2993,4.60009,2470.1,2021-1-28T03:02:33Z
2021-01-28T01:04:33Z,42.805,6.029,13.2990,4.60003,2470.1,2021-1-28T03:05:36Z
2021-01-28T01:07:37Z,42.805,6.029,13.2991,4.60014,2470.11,2021-1-28T03:08:39Z
2021-01-28T01:10:40Z,42.805,6.029,13.2991,4.60031,2470.087,2021-1-28T03:11:42Z
2021-01-28T01:13:43Z,42.805,6.029,13.2988,4.60012,2470.1,2021-1-28T03:14:45Z
2021-01-28T01:16:46Z,42.805,6.029,13.2997,4.60005,2470.124,2021-1-28T03:17:48Z
2021-01-28T01:19:49Z,42.805,6.029,13.2991,4.60011,2470.073,2021-1-28T03:20:51Z
2021-01-28T01:22:52Z,42.805,6.029,13.2996,4.60013,2470.11,2021-1-28T03:23:55Z
2021-01-28T01:25:55Z,42.805,6.029,13.2986,4.60031,2470.087,2021-1-28T03:26:58Z
2021-01-28T01:28:58Z,42.805,6.029,13.2984,4.60006,2470.124,2021-1-28T03:30:01Z
2021-01-28T01:32:02Z,42.805,6.029,13.2986,4.60004,2470.087,2021-1-28T03:33:04Z
2021-01-28T01:35:05Z,42.805,6.029,13.2988,4.60003,2470.087,2021-1-28T03:36:07Z
2021-01-28T01:38:08Z,42.805,6.029,13.2988,4.60014,2470.087,2021-1-28T03:39:10Z
2021-01-28T01:41:11Z,42.805,6.029,13.2989,4.60026,2470.11,2021-1-28T03:42:13Z
2021-01-28T01:44:14Z,42.805,6.029,13.2991,4.60003,2470.1,2021-1-28T03:45:16Z
2021-01-28T01:47:17Z,42.805,6.029,13.2994,4.60009,2470.11,2021-1-28T03:48:20Z
2021-01-28T01:50:20Z,42.805,6.029,13.2990,4.60004,2470.1,2021-1-28T03:51:23Z
2021-01-28T01:53:23Z,42.805,6.029,13.2986,4.60003,2470.11,2021-1-28T03:54:26Z
2021-01-28T01:56:27Z,42.805,6.029,13.2996,4.59999,2470.133,2021-1-28T03:57:29Z
2021-01-28T01:59:30Z,42.805,6.029,13.2988,4.59996,2470.11,2021-1-28T04:00:32Z
2021-01-28T02:02:33Z,42.805,6.029,13.2984,4.60003,2470.11,2021-1-28T04:03:35Z
2021-01-28T02:05:36Z,42.805,6.029,13.2989,4.60014,2470.1,2021-1-28T04:06:38Z
2021-01-28T02:08:39Z,42.805,6.029,13.3004,4.60031,2470.147,2021-1-28T04:09:41Z
2021-01-28T02:11:42Z,42.805,6.029,13.2992,4.60025,2470.133,2021-1-28T04:12:45Z
2021-01-28T02:14:45Z,42.805,6.029,13.2984,4.60011,2470.124,2021-1-28T04:15:48Z
2021-01-28T02:17:48Z,42.805,6.029,13.2992,4.60006,2470.147,2021-1-28T04:18:51Z
2021-01-28T02:20:52Z,42.805,6.029,13.2987,4.60009,2470.133,2021-1-28T04:21:54Z
2021-01-28T02:23:55Z,42.805,6.029,13.2995,4.60010,2470.171,2021-1-28T04:24:57Z
2021-01-28T02:26:58Z,42.805,6.029,13.2987,4.60013,2470.147,2021-1-28T04:28:00Z
2021-01-28T02:30:01Z,42.805,6.029,13.2992,4.60003,2470.156,2021-1-28T04:31:03Z
2021-01-28T02:33:04Z,42.805,6.029,13.2987,4.60009,2470.133,2021-1-28T04:34:06Z
2021-01-28T02:36:07Z,42.805,6.029,13.2989,4.60002,2470.133,2021-1-28T04:37:10Z
2021-01-28T02:39:10Z,42.805,6.029,13.2991,4.60015,2470.11,2021-1-28T04:40:13Z
2021-01-28T02:42:13Z,42.805,6.029,13.2992,4.60007,2470.133,2021-1-28T04:43:16Z
2021-01-28T02:45:16Z,42.805,6.029,13.2986,4.60009,2470.147,2021-1-28T04:46:19Z
2021-01-28T02:48:20Z,42.805,6.029,13.2986,4.60009,2470.156,2021-1-28T04:49:22Z
2021-01-28T02:51:23Z,42.805,6.029,13.2988,4.60003,2470.171,2021-1-28T04:52:25Z
2021-01-28T02:54:26Z,42.805,6.029,13.2988,4.60006,2470.18,2021-1-28T04:55:28Z
2021-01-28T02:57:29Z,42.805,6.029,13.2985,4.59999,2470.156,2021-1-28T04:58:31Z
2021-01-28T03:00:32Z,42.805,6.029,13.2988,4.60003,2470.171,2021-1-28T05:01:35Z
2021-01-28T03:03:35Z,42.805,6.029,13.2992,4.60023,2470.156,2021-1-28T05:04:38Z
2021-01-28T03:06:38Z,42.805,6.029,13.2992,4.60007,2470.166,2021-1-28T05:07:41Z
2021-01-28T03:09:41Z,42.805,6.029,13.2993,4.60009,2470.133,2021-1-28T05:10:44Z
2021-01-28T03:12:45Z,42.805,6.029,13.2989,4.60033,2470.18,2021-1-28T05:13:47Z
2021-01-28T03:15:48Z,42.805,6.029,13.2992,4.60026,2470.156,2021-1-28T05:16:50Z
2021-01-28T03:18:51Z,42.805,6.029,13.2991,4.60031,2470.194,2021-1-28T05:19:53Z
2021-01-28T03:21:54Z,42.805,6.029,13.2985,4.60003,2470.156,2021-1-28T05:22:56Z
2021-01-28T03:24:57Z,42.805,6.029,13.2990,4.60023,2470.171,2021-1-28T05:26:00Z
2021-01-28T03:28:00Z,42.805,6.029,13.2983,4.60009,2470.171,2021-1-28T05:29:03Z
2021-01-28T03:31:03Z,42.805,6.029,13.2985,4.60006,2470.18,2021-1-28T05:32:06Z
2021-01-28T03:34:06Z,42.805,6.029,13.2988,4.60007,2470.217,2021-1-28T05:35:09Z
2021-01-28T03:37:10Z,42.805,6.029,13.2989,4.60023,2470.18,2021-1-28T05:38:12Z
2021-01-28T03:40:13Z,42.805,6.029,13.2991,4.60019,2470.18,2021-1-28T05:41:15Z
2021-01-28T03:43:16Z,42.805,6.029,13.2991,4.60045,2470.18,2021-1-28T05:44:18Z
2021-01-28T03:46:19Z,42.805,6.029,13.2997,4.60019,2470.227,2021-1-28T05:47:21Z
2021-01-28T03:49:22Z,42.805,6.029,13.2989,4.60016,2470.194,2021-1-28T05:50:25Z
2021-01-28T03:52:25Z,42.805,6.029,13.2988,4.60010,2470.203,2021-1-28T05:53:28Z
2021-01-28T03:55:28Z,42.805,6.029,13.2994,4.60006,2470.217,2021-1-28T05:56:31Z
2021-01-28T03:58:31Z,42.805,6.029,13.2991,4.60007,2470.203,2021-1-28T05:59:34Z
2021-01-28T04:01:35Z,42.805,6.029,13.2987,4.60006,2470.227,2021-1-28T06:02:37Z
2021-01-28T04:04:38Z,42.805,6.029,13.2993,4.60009,2470.227,2021-1-28T06:05:40Z
2021-01-28T04:07:41Z,42.805,6.029,13.2993,4.60006,2470.227,2021-1-28T06:08:43Z
2021-01-28T04:10:44Z,42.805,6.029,13.2992,4.60013,2470.227,2021-1-28T06:11:46Z
2021-01-28T04:13:47Z,42.805,6.029,13.2992,4.60018,2470.227,2021-1-28T06:14:49Z
2021-01-28T04:16:50Z,42.805,6.029,13.2983,4.60001,2470.24,2021-1-28T06:17:53Z
2021-01-28T04:19:53Z,42.805,6.029,13.2990,4.60002,2470.227,2021-1-28T06:20:56Z
2021-01-28T04:22:56Z,42.805,6.029,13.2989,4.60004,2470.227,2021-1-28T06:23:59Z
2021-01-28T04:26:00Z,42.805,6.029,13.2990,4.60011,2470.227,2021-1-28T06:27:02Z
2021-01-28T04:29:03Z,42.805,6.029,13.2991,4.60011,2470.227,2021-1-28T06:30:05Z
2021-01-28T04:32:06Z,42.805,6.029,13.2998,4.60021,2470.24,2021-1-28T06:33:08Z
2021-01-28T04:35:09Z,42.805,6.029,13.2987,4.60004,2470.264,2021-1-28T06:36:11Z
2021-01-28T04:38:12Z,42.805,6.029,13.2990,4.60005,2470.264,2021-1-28T06:39:15Z
2021-01-28T04:41:15Z,42.805,6.029,13.2990,4.60006,2470.25,2021-1-28T06:42:18Z
2021-01-28T04:44:18Z,42.805,6.029,13.2985,4.60006,2470.297,2021-1-28T06:45:21Z
2021-01-28T04:47:21Z,42.805,6.029,13.2987,4.60020,2470.273,2021-1-28T06:48:24Z
2021-01-28T04:50:25Z,42.805,6.029,13.2992,4.60011,2470.297,2021-1-28T06:51:27Z
2021-01-28T04:53:28Z,42.805,6.029,13.2987,4.60012,2470.287,2021-1-28T06:54:30Z
2021-01-28T04:56:31Z,42.805,6.029,13.2990,4.60010,2470.273,2021-1-28T06:57:33Z
2021-01-28T04:59:34Z,42.805,6.029,13.2991,4.60019,2470.287,2021-1-28T07:00:36Z
2021-01-28T05:02:37Z,42.805,6.029,13.2990,4.60041,2470.287,2021-1-28T07:03:40Z
2021-01-28T05:05:40Z,42.805,6.029,13.2990,4.60015,2470.273,2021-1-28T07:06:43Z
2021-01-28T05:08:43Z,42.805,6.029,13.2991,4.60010,2470.264,2021-1-28T07:09:46Z
2021-01-28T05:11:46Z,42.805,6.029,13.2991,4.60017,2470.273,2021-1-28T07:12:49Z
2021-01-28T05:14:50Z,42.805,6.029,13.2990,4.60006,2470.297,2021-1-28T07:15:52Z
2021-01-28T05:17:53Z,42.805,6.029,13.2993,4.60007,2470.31,2021-1-28T07:18:55Z
2021-01-28T05:20:56Z,42.805,6.029,13.2990,4.60021,2470.31,2021-1-28T07:21:58Z
2021-01-28T05:23:59Z,42.805,6.029,13.2986,4.60017,2470.31,2021-1-28T07:25:01Z
2021-01-28T05:27:02Z,42.805,6.029,13.2994,4.60025,2470.31,2021-1-28T07:28:04Z
2021-01-28T05:30:05Z,42.805,6.029,13.2992,4.60005,2470.31,2021-1-28T07:31:08Z
2021-01-28T05:33:08Z,42.805,6.029,13.2986,4.60009,2470.31,2021-1-28T07:34:11Z
2021-01-28T05:36:11Z,42.805,6.029,13.2986,4.60008,2470.32,2021-1-28T07:37:14Z
2021-01-28T05:39:15Z,42.805,6.029,13.2991,4.60022,2470.334,2021-1-28T07:40:17Z
2021-01-28T05:42:18Z,42.805,6.029,13.2990,4.60024,2470.334,2021-1-28T07:43:20Z
2021-01-28T05:45:21Z,42.805,6.029,13.2993,4.60016,2470.31,2021-1-28T07:46:23Z
2021-01-28T05:48:24Z,42.805,6.029,13.3009,4.60031,2470.297,2021-1-28T07:49:26Z
2021-01-28T05:51:27Z,42.805,6.029,13.2990,4.60011,2470.334,2021-1-28T07:52:29Z
2021-01-28T05:54:30Z,42.805,6.029,13.2989,4.60016,2470.334,2021-1-28T07:55:33Z
2021-01-28T05:57:33Z,42.805,6.029,13.2990,4.60021,2470.343,2021-1-28T07:58:36Z
2021-01-28T06:00:36Z,42.805,6.029,13.2991,4.60008,2470.32,2021-1-28T08:01:39Z
2021-01-28T06:03:40Z,42.805,6.029,13.2995,4.60019,2470.357,2021-1-28T08:04:42Z
2021-01-28T06:06:43Z,42.805,6.029,13.2993,4.60009,2470.334,2021-1-28T08:07:45Z
2021-01-28T06:09:46Z,42.805,6.029,13.2998,4.60020,2470.32,2021-1-28T08:10:48Z
2021-01-28T06:12:49Z,42.805,6.029,13.2995,4.60017,2470.32,2021-1-28T08:13:51Z
2021-01-28T06:15:52Z,42.805,6.029,13.2997,4.60014,2470.32,2021-1-28T08:16:54Z
2021-01-28T06:18:55Z,42.805,6.029,13.2991,4.60009,2470.334,2021-1-28T08:19:58Z
2021-01-28T06:21:58Z,42.805,6.029,13.2990,4.60014,2470.357,2021-1-28T08:23:01Z
2021-01-28T06:25:01Z,42.805,6.029,13.2993,4.60014,2470.334,2021-1-28T08:26:04Z
2021-01-28T06:28:05Z,42.805,6.029,13.2990,4.60009,2470.343,2021-1-28T08:29:07Z
2021-01-28T06:31:08Z,42.805,6.029,13.2991,4.60009,2470.32,2021-1-28T08:32:10Z
2021-01-28T06:34:11Z,42.805,6.029,13.2990,4.60008,2470.343,2021-1-28T08:35:13Z
2021-01-28T06:37:14Z,42.805,6.029,13.2991,4.60021,2470.31,2021-1-28T08:38:16Z
2021-01-28T06:40:17Z,42.805,6.029,13.2989,4.60006,2470.334,2021-1-28T08:41:19Z
2021-01-28T06:43:20Z,42.805,6.029,13.2988,4.60003,2470.357,2021-1-28T08:44:23Z
2021-01-28T06:46:23Z,42.805,6.029,13.2992,4.60006,2470.343,2021-1-28T08:47:26Z
2021-01-28T06:49:26Z,42.805,6.029,13.2986,4.60011,2470.32,2021-1-28T08:50:29Z
2021-01-28T06:52:30Z,42.805,6.029,13.2990,4.60016,2470.357,2021-1-28T08:53:32Z
2021-01-28T06:55:33Z,42.805,6.029,13.2992,4.60007,2470.343,2021-1-28T08:56:35Z
2021-01-28T06:58:36Z,42.805,6.029,13.2989,4.60005,2470.343,2021-1-28T08:59:38Z
2021-01-28T07:01:39Z,42.805,6.029,13.2998,4.60009,2470.32,2021-1-28T09:02:41Z
2021-01-28T07:04:42Z,42.805,6.029,13.2990,4.60006,2470.357,2021-1-28T09:05:44Z
2021-01-28T07:07:45Z,42.805,6.029,13.2991,4.60010,2470.39,2021-1-28T09:08:48Z
2021-01-28T07:10:48Z,42.805,6.029,13.2990,4.60004,2470.38,2021-1-28T09:11:51Z
2021-01-28T07:13:51Z,42.805,6.029,13.2989,4.60002,2470.343,2021-1-28T09:14:54Z
2021-01-28T07:16:55Z,42.805,6.029,13.2991,4.60004,2470.334,2021-1-28T09:17:57Z
2021-01-28T07:19:58Z,42.805,6.029,13.2994,4.60013,2470.343,2021-1-28T09:21:00Z
2021-01-28T07:23:01Z,42.805,6.029,13.2996,4.60026,2470.366,2021-1-28T09:24:03Z
2021-01-28T07:26:04Z,42.805,6.029,13.2996,4.60021,2470.343,2021-1-28T09:27:06Z
2021-01-28T07:29:07Z,42.805,6.029,13.2986,4.60007,2470.343,2021-1-28T09:30:09Z
2021-01-28T07:32:10Z,42.805,6.029,13.2991,4.60016,2470.366,2021-1-28T09:33:13Z
2021-01-28T07:35:13Z,42.805,6.029,13.2991,4.60008,2470.343,2021-1-28T09:36:16Z
2021-01-28T07:38:16Z,42.805,6.029,13.2993,4.60029,2470.343,2021-1-28T09:39:19Z
2021-01-28T07:41:19Z,42.805,6.029,13.2993,4.60012,2470.357,2021-1-28T09:42:22Z
2021-01-28T07:44:23Z,42.805,6.029,13.3000,4.60011,2470.334,2021-1-28T09:45:25Z
2021-01-28T07:47:26Z,42.805,6.029,13.2997,4.60009,2470.38,2021-1-28T09:48:28Z
2021-01-28T07:50:29Z,42.805,6.029,13.2993,4.60006,2470.366,2021-1-28T09:51:31Z
2021-01-28T07:53:32Z,42.805,6.029,13.2990,4.60029,2470.366,2021-1-28T09:54:34Z
2021-01-28T07:56:35Z,42.805,6.029,13.2992,4.60017,2470.366,2021-1-28T09:57:38Z
2021-01-28T07:59:38Z,42.805,6.029,13.2995,4.60025,2470.366,2021-1-28T10:00:41Z
2021-01-28T08:02:41Z,42.805,6.029,13.2993,4.60011,2470.366,2021-1-28T10:03:44Z
2021-01-28T08:05:44Z,42.805,6.029,13.2993,4.60012,2470.343,2021-1-28T10:06:47Z
2021-01-28T08:08:48Z,42.805,6.029,13.2992,4.60008,2470.357,2021-1-28T10:09:50Z
2021-01-28T08:11:51Z,42.805,6.029,13.2993,4.60016,2470.32,2021-1-28T10:12:53Z
2021-01-28T08:14:54Z,42.805,6.029,13.2992,4.60020,2470.343,2021-1-28T10:15:56Z
2021-01-28T08:17:57Z,42.805,6.029,13.2996,4.60015,2470.343,2021-1-28T10:18:59Z
2021-01-28T08:21:00Z,42.805,6.029,13.2993,4.60019,2470.343,2021-1-28T10:22:03Z
2021-01-28T08:24:03Z,42.805,6.029,13.2993,4.60006,2470.32,2021-1-28T10:25:06Z
2021-01-28T08:27:06Z,42.805,6.029,13.2989,4.60010,2470.38,2021-1-28T10:28:09Z
2021-01-28T08:30:09Z,42.805,6.029,13.2991,4.60019,2470.357,2021-1-28T10:31:12Z
2021-01-28T08:33:13Z,42.805,6.029,13.2984,4.60009,2470.357,2021-1-28T10:34:15Z
2021-01-28T08:36:16Z,42.805,6.029,13.2984,4.60004,2470.38,2021-1-28T10:37:18Z
2021-01-28T08:39:19Z,42.805,6.029,13.2989,4.60005,2470.343,2021-1-28T10:40:21Z
2021-01-28T08:42:22Z,42.805,6.029,13.2993,4.60009,2470.38,2021-1-28T10:43:24Z
2021-01-28T08:45:25Z,42.805,6.029,13.2990,4.60011,2470.334,2021-1-28T10:46:28Z
2021-01-28T08:48:28Z,42.805,6.029,13.2992,4.60009,2470.357,2021-1-28T10:49:31Z
2021-01-28T08:51:31Z,42.805,6.029,13.3000,4.60011,2470.343,2021-1-28T10:52:34Z
2021-01-28T08:54:35Z,42.805,6.029,13.3000,4.60006,2470.343,2021-1-28T10:55:37Z
2021-01-28T08:57:38Z,42.805,6.029,13.2989,4.60006,2470.32,2021-1-28T10:58:40Z
2021-01-28T09:00:41Z,42.805,6.029,13.2991,4.60011,2470.334,2021-1-28T11:01:43Z
2021-01-28T09:03:44Z,42.805,6.029,13.2993,4.59999,2470.32,2021-1-28T11:04:46Z
2021-01-28T09:06:47Z,42.805,6.029,13.2988,4.60004,2470.334,2021-1-28T11:07:49Z
2021-01-28T09:09:50Z,42.805,6.029,13.2991,4.60013,2470.343,2021-1-28T11:10:53Z
2021-01-28T09:12:53Z,42.805,6.029,13.2991,4.60010,2470.32,2021-1-28T11:13:56Z
2021-01-28T09:15:56Z,42.805,6.029,13.2991,4.60007,2470.297,2021-1-28T11:16:59Z
2021-01-28T09:19:00Z,42.805,6.029,13.2995,4.60006,2470.334,2021-1-28T11:20:02Z
2021-01-28T09:22:03Z,42.805,6.029,13.2992,4.60006,2470.31,2021-1-28T11:23:05Z
2021-01-28T09:25:06Z,42.805,6.029,13.2990,4.60009,2470.297,2021-1-28T11:26:08Z
2021-01-28T09:28:09Z,42.805,6.029,13.2991,4.60007,2470.31,2021-1-28T11:29:11Z
2021-01-28T09:31:12Z,42.805,6.029,13.2986,4.60009,2470.31,2021-1-28T11:32:14Z
2021-01-28T09:34:15Z,42.805,6.029,13.2987,4.60001,2470.343,2021-1-28T11:35:18Z
2021-01-28T09:37:18Z,42.805,6.029,13.2987,4.60000,2470.343,2021-1-28T11:38:21Z
2021-01-28T09:40:21Z,42.805,6.029,13.2986,4.60009,2470.334,2021-1-28T11:41:24Z
2021-01-28T09:43:25Z,42.805,6.029,13.2987,4.60001,2470.334,2021-1-28T11:44:27Z
2021-01-28T09:46:28Z,42.805,6.029,13.2993,4.60013,2470.297,2021-1-28T11:47:30Z
2021-01-28T09:49:31Z,42.805,6.029,13.2991,4.60001,2470.32,2021-1-28T11:50:33Z
2021-01-28T09:52:34Z,42.805,6.029,13.2991,4.60006,2470.297,2021-1-28T11:53:36Z
2021-01-28T09:55:37Z,42.805,6.029,13.2998,4.60017,2470.334,2021-1-28T11:56:40Z
2021-01-28T09:58:40Z,42.805,6.029,13.2990,4.60003,2470.32,2021-1-28T11:59:43Z
2021-01-28T10:01:43Z,42.805,6.029,13.2988,4.60001,2470.26,2021-1-28T12:02:46Z
2021-01-28T10:04:46Z,42.805,6.029,13.2990,4.59999,2470.273,2021-1-28T12:05:49Z
2021-01-28T10:07:50Z,42.805,6.029,13.2996,4.60011,2470.297,2021-1-28T12:08:52Z
2021-01-28T10:10:53Z,42.805,6.029,13.2993,4.60004,2470.297,2021-1-28T12:11:55Z
2021-01-28T10:13:56Z,42.805,6.029,13.2990,4.60004,2470.297,2021-1-28T12:14:58Z
2021-01-28T10:16:59Z,42.805,6.029,13.2983,4.59994,2470.273,2021-1-28T12:18:01Z
2021-01-28T10:20:02Z,42.805,6.029,13.2989,4.59999,2470.273,2021-1-28T12:21:05Z
2021-01-28T10:23:05Z,42.805,6.029,13.2986,4.59995,2470.297,2021-1-28T12:24:08Z
2021-01-28T10:26:08Z,42.805,6.029,13.2992,4.59996,2470.297,2021-1-28T12:27:11Z
2021-01-28T10:29:11Z,42.805,6.029,13.2986,4.59999,2470.297,2021-1-28T12:30:14Z
2021-01-28T10:32:15Z,42.805,6.029,13.2987,4.59999,2470.297,2021-1-28T12:33:17Z
2021-01-28T10:35:18Z,42.805,6.029,13.2988,4.59999,2470.287,2021-1-28T12:36:20Z
2021-01-28T10:38:21Z,42.805,6.029,13.2982,4.59996,2470.287,2021-1-28T12:39:23Z
2021-01-28T10:41:24Z,42.805,6.029,13.2983,4.60017,2470.273,2021-1-28T12:42:26Z
2021-01-28T10:44:27Z,42.805,6.029,13.2985,4.59996,2470.297,2021-1-28T12:45:30Z
2021-01-28T10:47:30Z,42.805,6.029,13.2987,4.60003,2470.273,2021-1-28T12:48:33Z
2021-01-28T10:50:33Z,42.805,6.029,13.2991,4.60002,2470.25,2021-1-28T12:51:36Z
2021-01-28T10:53:37Z,42.805,6.029,13.2989,4.60005,2470.264,2021-1-28T12:54:39Z
2021-01-28T10:56:40Z,42.805,6.029,13.2986,4.60003,2470.287,2021-1-28T12:57:42Z
2021-01-28T10:59:43Z,42.805,6.029,13.2992,4.60000,2470.25,2021-1-28T13:00:45Z
2021-01-28T11:02:46Z,42.805,6.029,13.2986,4.60003,2470.24,2021-1-28T13:03:48Z
2021-01-28T11:05:49Z,42.805,6.029,13.2984,4.59999,2470.25,2021-1-28T13:06:51Z
2021-01-28T11:08:52Z,42.805,6.029,13.2985,4.60003,2470.25,2021-1-28T13:09:55Z
2021-01-28T11:11:55Z,42.805,6.029,13.2990,4.59997,2470.24,2021-1-28T13:12:58Z
2021-01-28T11:14:58Z,42.805,6.029,13.2990,4.59996,2470.227,2021-1-28T13:16:01Z
2021-01-28T11:18:02Z,42.805,6.029,13.2991,4.59997,2470.227,2021-1-28T13:19:04Z
2021-01-28T11:21:05Z,42.805,6.029,13.2986,4.59999,2470.24,2021-1-28T13:22:07Z
2021-01-28T11:24:08Z,42.805,6.029,13.2984,4.59997,2470.227,2021-1-28T13:25:10Z
2021-01-28T11:27:11Z,42.805,6.029,13.2986,4.59997,2470.25,2021-1-28T13:28:13Z
2021-01-28T11:30:14Z,42.805,6.029,13.2986,4.59999,2470.264,2021-1-28T13:31:16Z
2021-01-28T11:33:17Z,42.805,6.029,13.2985,4.59993,2470.25,2021-1-28T13:34:20Z
2021-01-28T11:36:20Z,42.805,6.029,13.2986,4.59994,2470.25,2021-1-28T13:37:23Z
2021-01-28T11:39:23Z,42.805,6.029,13.2986,4.59994,2470.264,2021-1-28T13:40:26Z
2021-01-28T11:42:27Z,42.805,6.029,13.2987,4.59998,2470.227,2021-1-28T13:43:29Z
2021-01-28T11:45:30Z,42.805,6.029,13.2985,4.59994,2470.24,2021-1-28T13:46:32Z
2021-01-28T11:48:33Z,42.805,6.029,13.2990,4.60012,2470.217,2021-1-28T13:49:35Z
2021-01-28T11:51:36Z,42.805,6.029,13.2989,4.59998,2470.264,2021-1-28T13:52:38Z
2021-01-28T11:54:39Z,42.805,6.029,13.2986,4.59998,2470.227,2021-1-28T13:55:42Z
2021-01-28T11:57:42Z,42.805,6.029,13.2990,4.60000,2470.203,2021-1-28T13:58:45Z
2021-01-28T12:00:45Z,42.805,6.029,13.2982,4.59996,2470.203,2021-1-28T14:01:48Z
2021-01-28T12:03:48Z,42.805,6.029,13.2982,4.59996,2470.203,2021-1-28T14:04:51Z
2021-01-28T12:06:52Z,42.805,6.029,13.2981,4.59994,2470.203,2021-1-28T14:07:54Z
2021-01-28T12:09:55Z,42.805,6.029,13.2987,4.60006,2470.203,2021-1-28T14:10:57Z
2021-01-28T12:12:58Z,42.805,6.029,13.2991,4.59996,2470.18,2021-1-28T14:14:00Z
2021-01-28T12:16:01Z,42.805,6.029,13.2986,4.60000,2470.203,2021-1-28T14:17:03Z
2021-01-28T12:19:04Z,42.805,6.029,13.2988,4.59998,2470.194,2021-1-28T14:20:06Z
2021-01-28T12:22:07Z,42.805,6.029,13.2986,4.59999,2470.194,2021-1-28T14:23:10Z
2021-01-28T12:25:10Z,42.805,6.029,13.2991,4.59994,2470.18,2021-1-28T14:26:13Z
2021-01-28T12:28:13Z,42.805,6.029,13.2983,4.59994,2470.18,2021-1-28T14:29:16Z
2021-01-28T12:31:17Z,42.805,6.029,13.2985,4.59997,2470.24,2021-1-28T14:32:19Z
2021-01-28T12:34:20Z,42.805,6.029,13.2984,4.59993,2470.156,2021-1-28T14:35:22Z
2021-01-28T12:37:23Z,42.805,6.029,13.2986,4.59996,2470.156,2021-1-28T14:38:25Z
2021-01-28T12:40:26Z,42.805,6.029,13.2990,4.59996,2470.194,2021-1-28T14:41:28Z
2021-01-28T12:43:29Z,42.805,6.029,13.2983,4.59996,2470.18,2021-1-28T14:44:32Z
2021-01-28T12:46:32Z,42.805,6.029,13.2985,4.59998,2470.18,2021-1-28T14:47:35Z
2021-01-28T12:49:35Z,42.805,6.029,13.2988,4.59997,2470.194,2021-1-28T14:50:38Z
2021-01-28T12:52:38Z,42.805,6.029,13.2987,4.59996,2470.18,2021-1-28T14:53:41Z
2021-01-28T12:55:42Z,42.805,6.029,13.2987,4.60003,2470.171,2021-1-28T14:56:44Z
2021-01-28T12:58:45Z,42.805,6.029,13.2986,4.60001,2470.156,2021-1-28T14:59:47Z
2021-01-28T13:01:48Z,42.805,6.029,13.2982,4.59995,2470.156,2021-1-28T15:02:50Z
2021-01-28T13:04:51Z,42.805,6.029,13.2988,4.59992,2470.171,2021-1-28T15:05:53Z
2021-01-28T13:07:54Z,42.805,6.029,13.2983,4.59991,2470.203,2021-1-28T15:08:57Z
2021-01-28T13:10:57Z,42.805,6.029,13.2984,4.59991,2470.18,2021-1-28T15:12:00Z
2021-01-28T13:14:00Z,42.805,6.029,13.2990,4.59994,2470.18,2021-1-28T15:15:03Z
2021-01-28T13:17:04Z,42.805,6.029,13.2981,4.59993,2470.133,2021-1-28T15:18:06Z
2021-01-28T13:20:07Z,42.805,6.029,13.2987,4.59992,2470.171,2021-1-28T15:21:09Z
2021-01-28T13:23:10Z,42.805,6.029,13.2982,4.59996,2470.156,2021-1-28T15:24:12Z
2021-01-28T13:26:13Z,42.805,6.029,13.2989,4.59994,2470.147,2021-1-28T15:27:15Z
2021-01-28T13:29:16Z,42.805,6.029,13.2988,4.59999,2470.133,2021-1-28T15:30:18Z
2021-01-28T13:32:19Z,42.805,6.029,13.2981,4.59994,2470.171,2021-1-28T15:33:22Z
2021-01-28T13:35:22Z,42.805,6.029,13.2989,4.60031,2470.171,2021-1-28T15:36:25Z
2021-01-28T13:38:25Z,42.805,6.029,13.2986,4.59998,2470.156,2021-1-28T15:39:28Z
2021-01-28T13:41:29Z,42.805,6.029,13.2980,4.59994,2470.156,2021-1-28T15:42:31Z
2021-01-28T13:44:32Z,42.805,6.029,13.2986,4.59998,2470.147,2021-1-28T15:45:34Z
2021-01-28T13:47:35Z,42.805,6.029,13.2982,4.59992,2470.147,2021-1-28T15:48:37Z
2021-01-28T13:50:38Z,42.805,6.029,13.2987,4.59998,2470.133,2021-1-28T15:51:40Z
2021-01-28T13:53:41Z,42.805,6.029,13.2986,4.60016,2470.133,2021-1-28T15:54:44Z
2021-01-28T13:56:44Z,42.805,6.029,13.2981,4.59996,2470.156,2021-1-28T15:57:47Z
2021-01-28T13:59:47Z,42.805,6.029,13.2981,4.60006,2470.124,2021-1-28T16:00:50Z
2021-01-28T14:02:50Z,42.805,6.029,13.2985,4.59994,2470.133,2021-1-28T16:03:53Z
2021-01-28T14:05:54Z,42.805,6.029,13.2988,4.59996,2470.156,2021-1-28T16:06:56Z
2021-01-28T14:08:57Z,42.805,6.029,13.2988,4.59994,2470.11,2021-1-28T16:09:59Z
2021-01-28T14:12:00Z,42.805,6.029,13.2991,4.59996,2470.124,2021-1-28T16:13:02Z
2021-01-28T14:15:03Z,42.805,6.029,13.2983,4.59994,2470.11,2021-1-28T16:16:05Z
2021-01-28T14:18:06Z,42.805,6.029,13.2986,4.59998,2470.147,2021-1-28T16:19:09Z
2021-01-28T14:21:09Z,42.805,6.029,13.2987,4.59995,2470.156,2021-1-28T16:22:12Z
2021-01-28T14:24:12Z,42.805,6.029,13.2985,4.59994,2470.147,2021-1-28T16:25:15Z
2021-01-28T14:27:15Z,42.805,6.029,13.2988,4.59988,2470.147,2021-1-28T16:28:18Z
2021-01-28T14:30:19Z,42.805,6.029,13.2980,4.59991,2470.147,2021-1-28T16:31:21Z
2021-01-28T14:33:22Z,42.805,6.029,13.2982,4.59991,2470.133,2021-1-28T16:34:24Z
2021-01-28T14:36:25Z,42.805,6.029,13.2979,4.59989,2470.133,2021-1-28T16:37:27Z
2021-01-28T14:39:28Z,42.805,6.029,13.2983,4.59992,2470.147,2021-1-28T16:40:30Z
2021-01-28T14:42:31Z,42.805,6.029,13.2983,4.59989,2470.171,2021-1-28T16:43:34Z
2021-01-28T14:45:34Z,42.805,6.029,13.2986,4.60008,2470.18,2021-1-28T16:46:37Z
2021-01-28T14:48:37Z,42.805,6.029,13.2985,4.60009,2470.133,2021-1-28T16:49:40Z
2021-01-28T14:51:40Z,42.805,6.029,13.2982,4.59996,2470.147,2021-1-28T16:52:43Z
2021-01-28T14:54:44Z,42.805,6.029,13.2988,4.60011,2470.147,2021-1-28T16:55:46Z
2021-01-28T14:57:47Z,42.805,6.029,13.2991,4.60000,2470.147,2021-1-28T16:58:49Z
2021-01-28T15:00:50Z,42.805,6.029,13.2986,4.59996,2470.147,2021-1-28T17:01:52Z
2021-01-28T15:03:53Z,42.805,6.029,13.2985,4.59996,2470.133,2021-1-28T17:04:56Z
2021-01-28T15:06:56Z,42.805,6.029,13.2985,4.59992,2470.18,2021-1-28T17:07:59Z
2021-01-28T15:09:59Z,42.805,6.029,13.2976,4.60001,2470.156,2021-1-28T17:11:02Z
2021-01-28T15:13:02Z,42.805,6.029,13.2982,4.59997,2470.171,2021-1-28T17:14:05Z